Regional Weather Roundup
Issued by NWS

Home | Current Version | Previous Version | Text Only | Print | Product List | Glossary Off
Versions: 1 2 3 4 5 6 7 8 9 10 11 12 13 14 15 16 17 18 19 20 21 22 23 24 25 26 27 28 29 30 31 32 33 34 35 36 37 38 39 40 41 42 43 44 45 46 47 48 49 50

000
ASUS43 KFSD 290910
RWRSD

WEATHER ROUNDUP FOR SOUTH DAKOTA
NATIONAL WEATHER SERVICE SIOUX FALLS SD
400 AM CDT SAT AUG 29 2015

NOTE: "FAIR" INDICATES FEW OR NO CLOUDS BELOW 12,000 FEET WITH NO
SIGNIFICANT WEATHER AND/OR OBSTRUCTIONS TO VISIBILITY.


SDZ001>005-009-010-012>017-291000-
NORTHWEST AND NORTH CENTRAL SOUTH DAKOTA

CITY           SKY/WX    TMP DP  RH WIND       PRES   REMARKS
BUFFALO          N/A     65  45  48 W6        29.96F
FAITH            N/A     65  51  60 W5        30.00
MOBRIDGE       CLEAR     67  67 100 SE7       29.93S
$$

SDZ012>016-024>037-041>051-057-063-072>074-291000-
SOUTHWEST AND SOUTH CENTRAL SOUTH DAKOTA

CITY           SKY/WX    TMP DP  RH WIND       PRES   REMARKS
RAPID CTY ARPT CLEAR     59  54  83 NW3       30.05F
PIERRE         CLEAR     62  61  96 CALM      29.97R
CUSTER         CLEAR     56  46  69 W6        30.23S
ELLSWORTH AFB  CLEAR     64  53  66 W9        30.04S
PHILIP         CLEAR     60  58  92 W5        30.00S
PINE RIDGE     CLEAR     60  50  69 W3        30.10S
WINNER         FAIR      66  61  84 S9        30.02S
$$

SDZ004>011-016>023-039-040-291000-
NORTHEAST SOUTH DAKOTA

CITY           SKY/WX    TMP DP  RH WIND       PRES   REMARKS
ABERDEEN       CLEAR     63  61  93 S7        29.97R
WATERTOWN      CLEAR     58  56  93 S6        30.00F
BROOKINGS      CLEAR     55  52  88 CALM      30.05R
SISSETON         N/A     60  59  96 S7        29.95S
$$

SDZ017-020-022-023-036>040-048>070-291000-
SOUTHEAST SOUTH DAKOTA

CITY           SKY/WX    TMP DP  RH WIND       PRES   REMARKS
SIOUX FALLS    CLEAR     54  52  93 CALM      30.02S
HURON          CLEAR     61  59  93 S9        29.99F
CHAMBERLAIN    CLEAR     60  60 100 S5        30.00S
MITCHELL       CLEAR     61  58  90 S6        30.01F
YANKTON        CLEAR     54  54 100 CALM      30.02S
$$

ABBREVIATIONS USED IN REMARKS
   TC - TEMPERATURE IN CELSIUS
  WCI - WIND CHILL INDEX
   HX - HEAT INDEX
  VSB - VISIBILITY




USA.gov is the U.S. government's official web portal to all federal, state and local government web resources and services.